DEHRS EDWY-EDWG

Flight info

Callsign DEHRS
Flight time 0h 12m
Altitude 3000
Route EDWG
Aircraft C172/L-SFG/C

Departure

Time 2026-05-05 22:07
Airport Norderney Airport (EDWY)

Arrival

Time 2026-05-05 22:20
Airport Wangerooge Airport (EDWG)
Time Latitude Longitude Altitude Speed Heading
2026-05-05 22:02 53.70784 7.22796 8 ft 0 kts 258°
2026-05-05 22:04 53.70782 7.22780 9 ft 3 kts 257°
2026-05-05 22:05 53.70762 7.22732 10 ft 6 kts 266°
2026-05-05 22:05 53.70755 7.22628 10 ft 12 kts 265°
2026-05-05 22:05 53.70735 7.22449 11 ft 18 kts 248°
2026-05-05 22:05 53.70691 7.22295 14 ft 10 kts 213°
2026-05-05 22:06 53.70665 7.22393 12 ft 25 kts 86°
2026-05-05 22:06 53.70689 7.22994 6 ft 74 kts 86°
2026-05-05 22:06 53.70805 7.23904 133 ft 89 kts 75°
2026-05-05 22:06 53.70960 7.24975 273 ft 98 kts 75°
2026-05-05 22:07 53.71113 7.26127 402 ft 101 kts 74°
2026-05-05 22:07 53.71260 7.27305 533 ft 103 kts 76°
2026-05-05 22:07 53.71402 7.28488 667 ft 103 kts 74°
2026-05-05 22:07 53.71544 7.29672 795 ft 103 kts 75°
2026-05-05 22:08 53.71687 7.30865 928 ft 104 kts 77°
2026-05-05 22:08 53.71834 7.32098 966 ft 111 kts 76°
2026-05-05 22:08 53.71988 7.33400 972 ft 115 kts 75°
2026-05-05 22:08 53.72146 7.34736 984 ft 117 kts 75°
2026-05-05 22:09 53.72304 7.36081 981 ft 117 kts 73°
2026-05-05 22:09 53.72464 7.37424 976 ft 119 kts 75°
2026-05-05 22:09 53.72625 7.38789 981 ft 119 kts 76°
2026-05-05 22:09 53.72785 7.40157 983 ft 118 kts 74°
2026-05-05 22:10 53.72946 7.41514 977 ft 118 kts 76°
2026-05-05 22:10 53.73107 7.42875 979 ft 118 kts 76°
2026-05-05 22:10 53.73263 7.44211 974 ft 113 kts 76°
2026-05-05 22:10 53.73411 7.45479 965 ft 107 kts 76°
2026-05-05 22:11 53.73557 7.46718 963 ft 108 kts 76°
2026-05-05 22:11 53.73703 7.47976 967 ft 110 kts 78°
2026-05-05 22:11 53.73838 7.49219 978 ft 107 kts 76°
2026-05-05 22:11 53.73999 7.50445 975 ft 106 kts 75°
2026-05-05 22:12 53.74142 7.51679 972 ft 107 kts 76°
2026-05-05 22:12 53.74286 7.52921 969 ft 107 kts 76°
2026-05-05 22:12 53.74430 7.54162 974 ft 109 kts 75°
2026-05-05 22:12 53.74578 7.55439 977 ft 111 kts 75°
2026-05-05 22:13 53.74726 7.56710 973 ft 108 kts 75°
2026-05-05 22:13 53.74870 7.57952 977 ft 108 kts 75°
2026-05-05 22:13 53.75017 7.59198 974 ft 108 kts 76°
2026-05-05 22:13 53.75162 7.60441 972 ft 107 kts 75°
2026-05-05 22:14 53.75304 7.61671 968 ft 108 kts 76°
2026-05-05 22:14 53.75447 7.62919 970 ft 109 kts 76°
2026-05-05 22:14 53.75593 7.64177 971 ft 109 kts 75°
2026-05-05 22:14 53.75738 7.65432 969 ft 109 kts 75°
2026-05-05 22:15 53.75884 7.66690 967 ft 110 kts 76°
2026-05-05 22:15 53.76031 7.67961 970 ft 111 kts 76°
2026-05-05 22:15 53.76181 7.69256 975 ft 113 kts 75°
2026-05-05 22:15 53.76332 7.70564 970 ft 113 kts 75°
2026-05-05 22:16 53.76481 7.71861 969 ft 112 kts 75°
2026-05-05 22:16 53.76629 7.73150 973 ft 112 kts 75°
2026-05-05 22:16 53.76777 7.74440 968 ft 111 kts 74°
2026-05-05 22:16 53.76924 7.75719 968 ft 112 kts 75°
2026-05-05 22:17 53.77074 7.77019 971 ft 114 kts 76°
2026-05-05 22:17 53.77225 7.78334 973 ft 114 kts 76°
2026-05-05 22:17 53.77374 7.79639 971 ft 112 kts 75°
2026-05-05 22:17 53.77519 7.80915 967 ft 111 kts 76°
2026-05-05 22:18 53.77668 7.82208 971 ft 113 kts 76°
2026-05-05 22:18 53.77818 7.83520 966 ft 114 kts 77°
2026-05-05 22:18 53.77970 7.84803 931 ft 109 kts 72°
2026-05-05 22:18 53.78093 7.86101 798 ft 113 kts 77°
2026-05-05 22:19 53.78202 7.87395 689 ft 110 kts 78°
2026-05-05 22:19 53.78255 7.88649 495 ft 107 kts 77°
2026-05-05 22:19 53.78309 7.89841 287 ft 101 kts 86°
2026-05-05 22:19 53.78296 7.90944 86 ft 81 kts 92°
2026-05-05 22:20 53.78263 7.91733 5 ft 51 kts 97°
2026-05-05 22:20 53.78245 7.92125 5 ft 15 kts 90°
2026-05-05 22:20 53.78298 7.92171 7 ft 7 kts 336°
2026-05-05 22:20 53.78313 7.92015 5 ft 25 kts 274°
2026-05-05 22:21 53.78323 7.91725 7 ft 22 kts 274°
2026-05-05 22:21 53.78337 7.91491 8 ft 20 kts 297°
2026-05-05 22:21 53.78424 7.91279 9 ft 24 kts 305°
2026-05-05 22:21 53.78538 7.91054 8 ft 22 kts 330°
2026-05-05 22:22 53.78657 7.90977 8 ft 15 kts 342°
2026-05-05 22:22 53.78727 7.90931 8 ft 8 kts 340°
2026-05-05 22:22 53.78770 7.90881 9 ft 6 kts 306°
2026-05-05 22:22 53.78797 7.90887 12 ft 7 kts 34°
2026-05-05 22:23 53.78802 7.90921 11 ft 0 kts 123°
2026-05-05 22:23 53.78800 7.90925 10 ft 2 kts 124°
2026-05-05 22:23 53.78790 7.90951 8 ft 0 kts 125°